This is the latest recevied weather packets stored in our database for station/object W6MAF. If no packets are shown the sender has not sent any weather packets the latest 1 day(s).
| Time | Temp. | Humidity | Pressure | Rain* | Wind** | Luminosity | Snow |
|---|---|---|---|---|---|---|---|
| 1778049249 | 6.11° C | 90% | - | 0 mm | 5.81 m/s, 239° | - | - |
| 1778048951 | 6.11° C | 90% | - | 0 mm | 5.81 m/s, 226° | - | - |
| 1778048353 | 6.67° C | 89% | - | 0 mm | 5.81 m/s, 232° | - | - |
| 1778048055 | 6.67° C | 88% | - | 0 mm | 4.92 m/s, 238° | - | - |
| 1778047460 | 6.67° C | 87% | - | 0 mm | 4.47 m/s, 233° | - | - |
| 1778047162 | 6.67° C | 86% | - | 0 mm | 4.92 m/s, 215° | - | - |
| 1778046266 | 6.67° C | 84% | - | 0 mm | 4.02 m/s, 225° | - | - |
| 1778045968 | 6.67° C | 84% | - | 0 mm | 4.47 m/s, 217° | - | - |
| 1778045671 | 6.67° C | 83% | - | 0 mm | 4.02 m/s, 225° | - | - |
| 1778045373 | 6.67° C | 82% | - | 0 mm | 4.47 m/s, 203° | - | - |
| 1778045072 | 7.22° C | 81% | - | 0 mm | 4.92 m/s, 226° | - | - |
| 1778044477 | 7.22° C | 80% | - | 0 mm | 5.81 m/s, 208° | - | - |
| 1778043584 | 7.22° C | 79% | - | 0 mm | 5.36 m/s, 214° | - | - |
| 1778043283 | 7.22° C | 78% | - | 0 mm | 5.36 m/s, 205° | - | - |
| 1778042985 | 7.22° C | 78% | - | 0 mm | 5.81 m/s, 224° | - | - |
| 1778042688 | 7.22° C | 77% | - | 0 mm | 4.92 m/s, 233° | - | - |
| 1778042390 | 7.22° C | 77% | - | 0 mm | 5.36 m/s, 205° | - | - |
| 1778042093 | 7.22° C | 76% | - | 0 mm | 4.92 m/s, 212° | - | - |
| 1778041796 | 7.22° C | 75% | - | 0 mm | 4.92 m/s, 214° | - | - |
| 1778041494 | 7.22° C | 74% | - | 0 mm | 3.58 m/s, 217° | - | - |
| 1778041196 | 7.22° C | 74% | - | 0 mm | 4.92 m/s, 229° | - | - |
| 1778040899 | 7.22° C | 72% | - | 0 mm | 4.92 m/s, 215° | - | - |
| 1778040601 | 7.22° C | 71% | - | 0 mm | 5.36 m/s, 210° | - | - |
| 1778040006 | 7.78° C | 69% | - | 0 mm | 5.36 m/s, 222° | - | - |
| 1778039705 | 7.78° C | 68% | - | 0 mm | 4.92 m/s, 226° | - | - |
* Rain latest hour (hover to see other rain measurements)
** Current wind speed in m/s (hover to see current wind gust speed)